Showing default

COSMOS 1564, 15003

Orbit data source: Space-Track

COSMOS 1564, 15003 is a payload satellite owned by GUKOS (CIS) in LEO that was launched on Mon, 28 May 1984 UTC via a KOSMOS 11K65M launch vehicle from the Plesetsk Missile And Space Complex (PKMTR). Payloads include a variety of satellites, spacecraft, and rockets equipped with specific instruments for various scientific and technological missions. These include communications satellites like Starlink; space stations such as the ISS; scientific satellites like the Hubble; Earth observation satellites from companies like Planet Labs, Umbra, and HawkEye 360; GPS; miniature CubeSats for education and research; and military/defense satellites.

Loading next visibility...
COSMOS 1564 details
Identifier
15003, 1984-052F
Orbit
LEO
Last TLE update1 day ago
Origin
Flag of CISGUKOS (CIS)
ManufacturerNPO PM
MissionDefense Communications
Bus & MotorSTRELA-1 11F625, Unknown motor
Mass60 kg wet, 60 kg dry
Launch date (UTC)
1984-05-28 (41 years ago)
Launch vehicle
KOSMOS 11K65M
Launch site
Plesetsk Missile And Space Complex (PKMTR)
Object type
Payload
Rocket body
Debris
Shape & HBRSphere, 0.8 m
Radar Cross Section0.588 m², Medium (>0.1 m² and < 1m²)

Expand to show TLE details & history

TLE from 1 day ago
0 COSMOS 1564
1 15003U 84052F   25035.44075770 -.00000004  00000-0  75929-4 0  9998
2 15003  74.0127 124.4497 0033245 337.9559 104.4925 12.53574612861894
Epoch: 2025-02-04T10:34Z
Definitive object data (Epoch: 2025-02-04T10:34:41.465Z)
Latitude72.58889°
Longitude-103.68297°
Altitude1,468.326 km
Speed7.132 km/s
True Right ascension12h 39m 20s
True Declination72° 29' 58"
Sunlit
Object was in daylight at TLE epoch
Visualization TLE readout
Latitude-0.23068°
Longitude-170.81954°
Altitude1,428.167 km
Speed7.158 km/s
Apparent Right ascension07h 40m 00s
Apparent Declination-18° 08' 19"
Sunlit
Object is in full shadow
Visualization observer readout
Local Sidereal Time18:50:42
Azimuth330.394° NNW
Elevation-65.761°
Doppler factor1
Orbital elements
Apogee altitude1,473.427 km
Perigee altitude1,421.395 km
Semi-major axis7,825.548 km
Eccentricity0.0033245
Inclination74.0127°
RAAN124.4497°
Arg. of periapsis337.9559°
True anomaly104.86095°
Mean anomaly104.4925°
Eccentric anomaly104.67676°
Mean motion3.13524 °/min
BSTAR0.000075929
Orbital period114.82 mins
Loading maneuver chart data...
Loading historical data...
Loading historical data...
Loading historical data...
Loading historical data...
Loading historical data...
Loading historical data...
Loading historical data...

COSMOS 1564 Visibility forecast

Observer location: undefined°, undefined

Span
Click to sort rows by Start time (UTC) header in descending order
Start Az.
Max El. time (UTC)
Max El. Az.
Max El.
End time (UTC)
End Az.
17 mins2025-02-05 17:22:50.536Z336.647° NNW2025-02-05 17:30:50.536Z277.887° WNW43.217°2025-02-05 17:39:50.536Z173.938° S
15 mins2025-02-06 06:16:50.536Z176.948° S2025-02-06 06:23:50.536Z107.821° ESE40.686°2025-02-06 06:31:50.536Z27.017° NE
13 mins2025-02-06 08:15:50.536Z249.428° W2025-02-06 08:21:50.536Z304.409° NW27.683°2025-02-06 08:28:50.536Z2.022° NNE
7 mins2025-02-06 14:26:50.536Z21.221° NNE2025-02-06 14:29:50.536Z42.91° NE13.542°2025-02-06 14:33:50.536Z71.016° E
15 mins2025-02-06 16:21:50.536Z349.377° N2025-02-06 16:28:50.536Z56.593° ENE40.974°2025-02-06 16:36:50.536Z144.439° SSE
|